www.pogodaiklimat.ru

Погода и климат >> Архив погоды >> Финляндия >> Киттиля


ПОГОДА в Киттиля

  • Прогноз погоды в Киттиля
  • Монитор погоды в Киттиля

АРХИВ ПОГОДЫ в Киттиля

Время (UTC), дата Ветер
(напр.,м/с)
 
Видим.   Явления Облачность Т
(С)
Тd
(С)
f
(%)
Тe
(С)
Тes
(С)
Комфортность P
(гПа)
Po
(гПа)
Тmin
(С)
Tmax
(С)
R
(мм)
R24
(мм)
S
(см)
12 18.06 СВ 3 50 км 1/1
[]
+17.7 +3.6 39 +18 +26 1006.7 984.1
15 18.06 С 3 35 км слаб. ливневой дождь 10/0 2000 м
[]
+14.4 +9.4 72 +14 +16 1005.8 982.9
18 18.06 СВ 3 50 км 9/8 2000 м
[]
+13.6 +6.4 62 +13 +13 1004.9 982.0 +13.2 +18.1
21 18.06 С 1 50 км слаб. ливневой дождь 10/10 2000 м
[]
+10.2 +8.3 88 +10 +10 1004.4 981.2
00 19.06 СЗ 2 50 км ясно +7.1 +6.2 94 +5 +5 1005.0 981.6
03 19.06 СЗ 3 50 км 4/4 300 м
[]
+9.2 +7.0 86 +7 +7 1005.7 982.5
06 19.06 С 4 50 км 9/9 300 м
[]
+11.1 +7.0 76 +9 +9 1006.3 983.2 +6.5 +13.6
09 19.06 З 2 50 км 10/10 600 м
[]
+13.2 +6.3 63 +13 +13 1007.0 984.0
12 19.06 СЗ 2 50 км в посл. час дождь 6/3 1000 м
[]
+14.6 +7.1 61 +14 +20 1007.7 984.8
15 19.06 С 4 50 км 8/8 1000 м
[]
+15.1 +6.2 55 +14 +15 1008.3 985.4
18 19.06 З 1 50 км 6/6 1000 м
[]
+13.6 +8.4 71 +14 +14 1009.4 986.4 +10.8 +16.2
21 19.06 З 2 50 км 9/9 1000 м
[]
+11.7 +8.6 81 +11 +11 1011.1 987.9
00 20.06 СВ 2 50 км в посл. час дождь 9/9 1500 м
[]
+9.5 +7.1 85 +8 +8 1012.1 988.8
03 20.06 СВ 1 50 км 10/10 2000 м
[]
+10.4 +7.3 81 +10 +10 1012.9 989.6
06 20.06 ЮВ 2 50 км 10/10 2000 м
[]
+12.6 +7.5 71 +12 +12 1012.9 989.8 +7.4 +14.1
09 20.06 З 1 50 км 8/8 1000 м
[]
+15.3 +6.5 56 +16 +19 1012.4 989.5
12 20.06 СЗ 2 50 км 9/6 1500 м
[]
+16.4 +5.9 50 +17 +19 1012.0 989.2
15 20.06 ЮВ 1 50 км 9/1 2000 м
[]
+17.3 +6.6 49 +18 +21 1011.2 988.4
18 20.06 ЮВ 3 50 км 9/9 1500 м
[]
+15.9 +8.0 59 +16 +16 1010.9 988.0 +12.6 +17.8
21 20.06 Ю 1 50 км слаб. дождь 10/10 2000 м
[]
+11.8 +10.0 89 +12 +12 1011.7 988.5
00 21.06 СВ 1 35 км слаб. дождь 10/10 2000 м
[]
+11.0 +10.6 97 +11 +11 1010.8 987.5
03 21.06 В 3 50 км слаб. дождь 10/10 600 м
[]
+11.7 +10.8 94 +10 +10 1008.9 985.8
06 21.06 В 4 50 км 9/9 200 м
[]
+12.4 +10.8 90 +10 +11 1007.0 984.0 +10.7 +15.9
09 21.06 В 4 50 км слаб. дождь 10/10 200 м
[]
+12.9 +11.1 89 +11 +11 1005.7 982.7
12 21.06 В 3 14 км слаб. ливневой дождь 10/10 200 м
[]
+13.2 +12.3 94 +12 +12 1004.6 981.7
15 21.06 В 3 5000 м слаб. дождь 10/10 100 м
[]
+12.9 +12.3 96 +11 +11 1004.0 981.1
18 21.06 СВ 2 18 км слаб. ливневой дождь 10/10 100 м
[]
+12.5 +12.1 97 +11 +11 1003.4 980.5 +12.4 +13.3
21 21.06 СВ 3 28 км 10/10 100 м
[]
+11.6 +11.1 97 +10 +10 1003.3 980.3
00 22.06 С 2 14 км 10/10 100 м
[]
+11.0 +10.7 98 +10 +10 1003.3 980.3
03 22.06 СВ 2 3600 м дымка 10/10 50 м
[]
+11.0 +10.8 99 +10 +10 1003.0 980.0
06 22.06 СВ 3 6000 м дымка 10/10 50 м
[]
+11.7 +11.5 99 +10 +10 1001.8 978.8 +10.9 +12.5
09 22.06 СВ 4 23 км 10/10 100 м
[]
+12.0 +11.4 96 +10 +10 1001.3 978.4
12 22.06 С 6 50 км 10/10 200 м
[]
+12.9 +11.2 89 +10 +10 1000.3 977.5
15 22.06 С 5 15 км дождь 10/10 200 м
[]
+11.7 +10.8 94 +9 +9 1000.3 977.4
18 22.06 СВ 3 50 км 9/6 200 м
[]
+11.0 +10.0 94 +9 +9 1001.0 978.0 +10.9 +13.8
21 22.06 С 6 28 км слаб. дождь 10/10 200 м
[]
+8.5 +7.7 95 +4 +4 1001.8 978.6
00 23.06 СЗ 5 18 км дождь 10/10 200 м
[]
+6.2 +5.3 94 +2 +2 1003.8 980.4
03 23.06 С 6 11 км слаб. дождь 10/10 200 м
[]
+5.7 +4.9 95 +1 +1 1005.5 982.0
06 23.06 С 6 17 км слаб. морось 10/10 200 м
[]
+5.8 +4.7 93 +1 +1 1008.1 984.5 +5.6 +11.0
09 23.06 С 6 35 км в посл. час осадки 10/10 300 м
[]
+6.8 +5.5 91 +2 +2 1011.3 987.7
12 23.06 С 4 15 км слаб. дождь 10/10 200 м
[]
+7.3 +6.1 92 +4 +4 1014.4 990.8
15 23.06 СЗ 2 50 км в посл. час дождь 10/10 1000 м
[]
+8.7 +6.7 87 +7 +7 1016.3 992.8
18 23.06 СЗ 2 50 км 10/10 1000 м
[]
+9.7 +7.7 87 +8 +8 1017.5 994.1 +5.7 +9.9
21 23.06 В 2 50 км 9/8
[]
+8.1 +7.0 93 +6 +6 1019.3 995.6
00 24.06 ЮЗ 1 20 км 9/1 1500 м
[]
+5.5 +5.3 99 +4 +4 1021.0 997.1
03 24.06 З 1 50 км 10/10 2000 м
[]
+8.8 +7.5 92 +8 +8 1021.6 998.0
06 24.06 З 3 50 км 8/8 1000 м
[]
+11.0 +7.1 77 +9 +10 1022.6 999.1 +5.4 +11.1
09 24.06 З 3 50 км 8/8 600 м
[]
+12.7 +5.6 62 +11 +13 1023.0 999.6
12 24.06 СВ 3 50 км 4/4 600 м
[]
+13.6 +7.2 65 +13 +18 1023.3 1000.0
15 24.06 ЮВ 2 50 км 4/4
[]
+14.1 +7.7 65 +14 +17 1023.5 1000.2
18 24.06 Ю 2 50 км 3/3 2000 м
[]
+12.3 +8.8 79 +11 +12 1023.5 1000.1 +10.1 +14.2
21 24.06 ЮЗ 2 50 км 9/9
[]
+10.4 +7.2 81 +9 +9 1023.9 1000.3
00 25.06 З 1 50 км 8/8 2000 м
[]
+8.6 +6.3 85 +8 +8 1024.0 1000.3
03 25.06 З 2 50 км 9/1 1500 м
[]
+9.6 +5.1 74 +8 +9 1023.7 1000.0
06 25.06 СЗ 3 50 км ясно +12.3 +4.7 60 +11 +16 1022.9 999.5 +8.5 +12.7
09 25.06 С 6 50 км в посл. час дождь 9/5 1000 м
[]
+12.2 +5.3 63 +10 +11 1022.8 999.4

 

Местоположение метеостанции Киттиля (Финляндия): широта 67.70 долгота 24.85 высота над уровнем моря 196 м.

В архиве по умолчанию представлена погода в Киттиля за последнюю неделю. Архивные данные за месяц целиком и за предыдущие месяцы, начиная с января 2011 года, Вы можете получить, выбрав интересующий диапазон дат из раскрывающегося списка и нажав кнопку "Ввод!".


*Определитесь, кто Вы:
робот инопланетянин человек

Внимание! Время в таблицах - всемирное. Для получения местного времени необходимо прибавить поправку, которая равна 1 ч.

Смотрите также архив погоды в соседних городах и на ближайших метеорологических станциях:

Погода в Киттиля (Финляндия) (6 км)
Погода в Киттила Левитунтури (Финляндия) (9 км)
Погода в Киттила Кенттарова (Финляндия) (41 км)
Погода в Киттила Маторова (Финляндия) (42 км)
Погода в Киттиля Ломполонвуома (Финляндия) (43 км)
Погода в Муонио Саммалтунтури (Финляндия) (43 км)
Погода в Муонио Лаукукеро (Финляндия) (53 км)
Погода в Муонио Аламуонио (Финляндия) (59 км)
Погода в Киттила Покка (Финляндия) (65 км)
Погода в Паджала аэропорту (Швеция) (84 км)

Пояснения к столбцам:

Ветер - указаны скорость ветра в м/с - средняя за 10 мин, порывы в срок и между сроками (в фигурных скобках) и направление, откуда дует ветер: С - северный, СВ - северо-восточный, В - восточный, ЮВ - юго-восточный, Ю - южный, ЮЗ - юго-западный, З - западный, СЗ - северо-западный.
Видимость - горизонтальная дальность видимости в метрах или километрах. При видимости от 1 до 10 км при отсутствии осадков обычно наблюдается дымка, при ухудшении видимости до 1 км и менее - туман. В сухую погоду видимость может ухудшаться дымом, пылью или мглою.
Явления - указаны атмосферные явления, наблюдавшиеся в срок или в последний час перед сроком; фигурными скобками обозначены явления, наблюдавшиеся между сроками (за 1-3 часа до срока); квадратными скобками обозначены град или гололедные отложения с указанием их диаметра в мм.
Облачность - указаны через наклонную черту общая и нижняя облачность в баллах и высота нижней границы облаков в метрах; квадратными скобками обозначены формы облаков: Ci - перистые, Cs - перисто-слоистые, Cc - перисто-кучевые, Ac - высококучевые, As - высокослоистые, Sc - слоисто-кучевые, Ns - слоисто-дождевые, Cu - кучевые, Cb - кучево-дождевые. Подробнее классификацию облаков см. в Атласе облаков (PDF).
T - Температура воздуха - температура, измеренная на высоте 2 м над землей.
Td - Температура точки росы - температура, при понижении до которой содержащийся в воздухе водяной пар достигнет насыщения.
f - Относительная влажность воздуха - влажноcть воздуха, измеренная на высоте 2 м над землей.
Te - Эффективная температура - температура, которую ощущает одетый по сезону человек в тени. Характеристика душности погоды. При расчете учитывается влияние влажности воздуха и скорости ветра на теплоощущения человека.
Tes - Эффективная температура на солнце - температура, которую ощущает человек, с поправкой на солнечный нагрев. Характеристика знойности погоды. Зависит от высоты солнца над горизонтом, облачности и скорости ветра. Ночью, в пасмурную погоду, а также при ветре 12 м/с и более поправка равна нулю.
P - Атмосферное давление - приведенное к уровню моря атмосферное давление.
Po - Атмосферное давление - измеренное на уровне метеостанции атмосферное давление.
Tmin - Минимальная температура - минимум температуры воздуха на высоте 2 м над землей.
Tmax - Максимальная температура - максимум температуры воздуха на высоте 2 м над землей.
R - Количество осадков - Количество выпавших осадков за период времени, мм. При наведении курсора мыши на число - период времени, за который выпало указанное количество осадков.
R24 - Количество осадков - Количество выпавших осадков за 24 часа, мм.
S - Снежный покров - Высота снежного покрова, см. При наведении курсора мыши на число - состояние снежного покрова и степень покрытия местности в баллах.